Regional Weather Roundup
Issued by NWS

Home | Current Version | Previous Version | Graphics & Text | Print | Product List | Glossary On
Versions: 1 2 3 4 5 6 7 8 9 10 11 12 13 14 15 16 17 18 19 20 21 22 23 24 25 26 27 28 29 30 31 32 33 34 35 36 37 38 39 40 41 42 43 44 45 46 47 48 49 50
000
ASUS43 KMKX 271021
RWRWI

WISCONSIN REGIONAL WEATHER ROUNDUP
NATIONAL WEATHER SERVICE MILWAUKEE/SULLIVAN WI
500 AM CDT WED AUG 27 2014

NOTE: "FAIR" INDICATES FEW OR NO CLOUDS BELOW 12,000 FEET WITH NO
SIGNIFICANT WEATHER AND/OR OBSTRUCTIONS TO VISIBILITY.

WIZ001-002-006>008-014>016-023>028-271100-
NORTHWEST WISCONSIN

CITY           SKY/WX    TMP DP  RH WIND       PRES   REMARKS
SUPERIOR ARPT  CLOUDY    53  53  97 CALM      30.20S
ASHLAND        MOCLDY    54  51  90 W5        30.20R
HAYWARD        MOCLDY    56  54  93 CALM      30.20S
SIREN          CLOUDY    56  55  95 CALM      30.20S
RICE LAKE      MOCLDY    56  54  91 CALM      30.21S
LADYSMITH      CLOUDY    58  55  91 NW3       30.20S
EAU CLAIRE     MOCLDY    58  58 100 CALM      30.17F
MENOMONIE      PTSUNNY   59  57  94 N3        30.18S
NEW RICHMOND   CLOUDY    58  57  97 NE3       30.19F
OSCEOLA        MOCLDY    58  57  97 CALM      30.22R
$$

WIZ003>005-009-010-017-018-271100-
NORTH CENTRAL WISCONSIN

CITY           SKY/WX    TMP DP  RH WIND       PRES   REMARKS
WOODRUFF       CLOUDY    57  55  95 CALM      30.18S
RHINELANDER    CLOUDY    55  54  96 CALM      30.18S
EAGLE RIVER    CLOUDY    53  53 100 CALM      30.16F
LAND O LAKES   CLOUDY    51  51  99 CALM      30.18S FOG
PHILLIPS       MOCLDY    54  53  97 CALM      30.18R
TOMAHAWK       CLOUDY    53  51  95 CALM      30.18S FOG
MEDFORD        CLOUDY    54  53  99 CALM      30.18S FOG
MERRILL        CLOUDY    56  56 100 CALM      30.18R
$$

WIZ029-030-035-036-043>047-271100-
CENTRAL WISCONSIN

CITY           SKY/WX    TMP DP  RH WIND       PRES   REMARKS
WAUSAU         LGT RAIN  58  57  97 CALM      30.15F
MOSINEE        MOCLDY    55  55 100 CALM      30.18S
MARSHFIELD     CLOUDY    60  55  83 NE5       30.17F
STEVENS POINT  LGT RAIN  56  54  92 CALM      30.18S
WAUPACA        MOCLDY    59  57  93 CALM      30.17F
WAUTOMA        HVY RAIN  59  55  86 E3        30.17S
WISC RAPIDS    PTCLDY    61  55  81 NE3       30.18S
CAMP DOUGLAS   PTCLDY    55  55 100 W3        30.17S
$$

WIZ011>013-019>022-031-037>040-048>050-271100-
NORTHEAST WISCONSIN

CITY           SKY/WX    TMP DP  RH WIND       PRES   REMARKS
ANTIGO         CLOUDY    55  55  99 CALM      30.18F
STURGEON BAY   MOCLDY    61  52  72 E5        30.16S
GREEN BAY      CLOUDY    59  55  87 CALM      30.16S
MANITOWOC      CLOUDY    61  59  93 N6        30.16S
APPLETON       MOCLDY    59  50  72 NE6       30.16S
CLINTONVILLE   PTCLDY    55  54  94 CALM      30.17S
OSHKOSH        CLOUDY    64  58  80 NE12      30.15F
$$

WIZ032>034-041-042-053>061-271100-
SOUTHWEST WISCONSIN

CITY           SKY/WX    TMP DP  RH WIND       PRES   REMARKS
LA CROSSE      CLOUDY    63  58  83 N5        30.16S
SPARTA         MOCLDY    56  55  97 CALM      30.18S
VIROQUA        CLOUDY    59  58  98 CALM      30.18S
BOSCOBEL       CLOUDY    64  60  87 CALM      30.17R
PRAIRIE DU CHI CLEAR     59  57  94 CALM      30.17R
PLATTEVILLE    FAIR      61  59  91 CALM      30.17S
$$

WIZ056-057-062-063-064-067-068-271100-
SOUTH CENTRAL WISCONSIN

CITY           SKY/WX    TMP DP  RH WIND       PRES   REMARKS
BARABOO/DELLS  MOCLDY    61  56  83 NW3       30.16S
LONE ROCK      CLOUDY    66  60  81 NW5       30.17R
WATERTOWN      CLOUDY    61  58  91 CALM      30.14F
MADISON        MOCLDY    61  58  90 CALM      30.15F
MIDDLETON      FAIR      62  61  96 CALM      30.15F
MONROE         PTCLDY    61  59  94 N5        30.15S
JANESVILLE     MOCLDY    63  61  94 CALM      30.14S
$$

WIZ051-052-058>065-066-070>072-271100-
SOUTHEAST WISCONSIN

CITY           SKY/WX    TMP DP  RH WIND       PRES   REMARKS
MILWAUKEE      CLOUDY    65  57  75 N5        30.14R
WAUKESHA       CLOUDY    61  55  82 NW3       30.16R
MILWAUKEE/TIMM CLOUDY    63  55  77 CALM      30.15R
RACINE         CLOUDY    65  61  87 NW3       30.15R
BURLINGTON     CLOUDY    60  59  98 CALM      30.14S
KENOSHA        CLOUDY    63  60  90 N6        30.13S
FOND DU LAC    CLOUDY    64  57  78 NE8       30.16S
SHEBOYGAN      CLOUDY    61  58  90 N7        30.15R
WEST BEND      CLOUDY    61  55  82 CALM      30.15S
JUNEAU         CLOUDY    61  56  85 N3        30.15F
$$

LSZ147-162-271100-
LAKE SUPERIOR

STATION/POSITION TIME  TEMP    WIND        PRES    WAVE
                       AIR SEA DIR/SP/G            HT/PER
                 (UTC) (F)     (DEG/KT/KT) (MB)    (FT/S)
W MID LAKE BUOY  0950   56 54  280/  6/  8 1021.5R   1
DEVILS ISLAND    1000   58     300/ 10/ 10 1022.3R
PORT WING        0900   57     200/  4/  7 1022.4S
SAXON HARBOR     0900   57     180/  2/  5 1021.7S
$$

LMZ867-665-643>646-271100-
LAKE MICHIGAN

STATION/POSITION TIME  TEMP    WIND        PRES    WAVE
                       AIR SEA DIR/SP/G            HT/PER
                 (UTC) (F)     (DEG/KT/KT) (MB)    (FT/S)
N MID LAKE BUOY  0950   62 65  340/  8/ 10 1020.8F   1/ 3
NORTHPORT PIER   0900   63      30/  4/  5 1021.0S
SISTER BAY       0941   58        CALM       N/A
ALGOMA LAKESHORE 0823          350/  6/  8   N/A
KEWAUNEE LAKESHO 0900   62     350/  4/  8 1020.1R
SHEBOYGAN LAKESH 1000   63 66  340/  9/ 11 1020.8S
ATWATER BUOY     1000   68     350/ 10/ 12 1021.3F
MILWAUKEE LAKESH 1000   66     340/  6/  7   N/A
S MID LAKE BUOY  0950   68 69   40/  2/  4 1019.8S   0
KENOSHA   LAKESH 1000   68     350/  5/  6 1019.6F
$$

TC  - TEMPERATURE IN CELSIUS
VSB - VISIBILITY IN STATUTE MILES
WCI - WIND CHILL INDEX
HX  - HEAT INDEX



USA.gov is the U.S. government's official web portal to all federal, state and local government web resources and services.